Accueil
METAR-TAF:

METAR-TAF

Aéroports :

Diepholz, Allemagne

latitude: 52-35N, longitude: 008-21E, altitude: 39 m

Observation

Le bulletin a été fait il y a 10 heures et 5 minutes, à 14:20 UTC
Vent 7 kt de est/nord-est
Température 3°C
Humidité 56%
Pression 1025 hPa
Visibilité 10 km ou plus
Quelques nuages à une hauteur de 3300 ft
Nuages fragmentés à une hauteur de 15000 ft

METAR: ETND 211420Z 07007KT 9999 FEW033 BKN150 03/M05 Q1025 BLU

Heure: 01:25 (00:25 UTC)


TAF: absent

Observations et prévisions météorologiques de plus de 4000 aéroports (messages METAR et TAF).

Les stations disponibles sont représentées par des disques jaunes et rouges sur la carte.

Passer la souris dessus pour voir le nom de la station.

Cliquer dessus pour voir les observations et prévisions météorologiques.

Pour changer de carte: cliquez sur les boutons verts avec une croix noire pour zoomer, sur le bouton vert avec un tiret pour effectuer un zoom arrière, ou sur les flèches vertes pour les cartes adjacentes.


METAR-TAF: